Tracking 19475 objects as of 18-Jan-2019
HD Live streaming from Space Station
objects crossing your sky now

COSMOS 2513

Track COSMOS 2513 now!
COSMOS 2513 is classified as:


NORAD ID: 41121
Int'l Code: 2015-075A
Perigee: 35,781.1 km
Apogee: 35,806.5 km
Inclination: 0.1 °
Period: 1,436.1 minutes
Semi major axis: 42164 km
RCS: Unknown
Launch date: December 13, 2015
Source: Commonwealth of Independent States (former USSR) (CIS)
Launch site: TYURATAM MISSILE AND SPACE COMPLEX (TTMTR)

COSMOS 2513 is a Russian geostationary military communications satellite.
aabbcc
Your satellite tracking list
Your tracking list is empty




NASA's NSSDC Master Catalog

Two Line Element Set (TLE):
1 41121U 15075A   19017.95651569 -.00000130  00000-0  00000+0 0  9995
2 41121   0.0729 108.2903 0003016 183.2262 250.1433  1.00271569 11456
Source of the keplerian elements: AFSPC